| time (UTC) | temp F | wind direction | speed MPH | gust MPH | rain 1hr in | rain 24hr in | rain mn in | humidity % | barometer mb |
| 20260504045553 | 45 | 250 | 0.0 | 9.0 | 0.00 | 0.00 | 0.00 | 74 | 993.3 |
| 20260504045053 | 45 | 252 | 0.0 | 8.0 | 0.00 | 0.00 | 0.00 | 74 | 993.3 |
| 20260504044552 | 46 | 238 | 0.0 | 6.0 | 0.00 | 0.00 | 0.00 | 73 | 993.4 |
| 20260504044051 | 46 | 236 | 0.0 | 6.0 | 0.00 | 0.00 | 0.00 | 73 | 993.4 |
| 20260504043551 | 46 | 238 | 0.0 | 4.0 | 0.00 | 0.00 | 0.00 | 72 | 993.4 |
| 20260504043057 | 47 | 229 | 0.0 | 2.0 | 0.00 | 0.00 | 0.00 | 72 | 993.4 |
| 20260504042548 | 47 | 221 | 0.0 | 7.0 | 0.00 | 0.00 | 0.00 | 72 | 993.3 |
| 20260504042048 | 47 | 242 | 1.0 | 7.0 | 0.00 | 0.00 | 0.00 | 72 | 993.4 |
| 20260504041548 | 47 | 245 | 0.0 | 1.0 | 0.00 | 0.00 | 0.00 | 71 | 993.4 |
| 20260504041046 | 48 | 237 | 0.0 | 2.0 | 0.00 | 0.00 | 0.00 | 70 | 993.4 |
| 20260504040545 | 48 | 249 | 0.0 | 4.0 | 0.00 | 0.00 | 0.00 | 70 | 993.3 |
| 20260504040044 | 48 | 235 | 0.0 | 8.0 | 0.00 | 0.00 | 0.00 | 70 | 993.3 |
| 20260504035544 | 48 | 239 | 0.0 | 8.0 | 0.00 | 0.00 | 0.00 | 69 | 993.3 |
| 20260504035044 | 48 | 255 | 0.0 | 7.0 | 0.00 | 0.00 | 0.00 | 69 | 993.4 |
| 20260504034550 | 48 | 229 | 0.0 | 5.0 | 0.00 | 0.00 | 0.00 | 69 | 993.3 |
| 20260504034044 | 48 | 271 | 0.0 | 5.0 | 0.00 | 0.00 | 0.00 | 68 | 993.3 |
| 20260504033544 | 48 | 238 | 0.0 | 3.0 | 0.00 | 0.00 | 0.00 | 68 | 993.3 |
| 20260504033045 | 49 | 255 | 0.0 | 7.0 | 0.00 | 0.00 | 0.00 | 67 | 993.4 |
| 20260504032544 | 49 | 254 | 0.0 | 11.0 | 0.00 | 0.00 | 0.00 | 67 | 993.3 |
| 20260504032044 | 49 | 232 | 1.0 | 11.0 | 0.00 | 0.00 | 0.00 | 66 | 993.3 |
| 20260504031602 | 49 | 251 | 1.0 | 10.0 | 0.00 | 0.00 | 0.00 | 65 | 993.3 |
| 20260504031042 | 49 | 236 | 0.0 | 10.0 | 0.00 | 0.00 | 0.00 | 65 | 993.2 |
| 20260504030542 | 49 | 213 | 0.0 | 10.0 | 0.00 | 0.00 | 0.00 | 64 | 993.3 |
| 20260504030043 | 49 | 240 | 0.0 | 11.0 | 0.00 | 0.00 | 0.00 | 64 | 993.4 |
| 20260504025542 | 49 | 248 | 3.0 | 11.0 | 0.00 | 0.00 | 0.00 | 63 | 993.5 |
| 20260504025042 | 49 | 248 | 0.0 | 7.0 | 0.00 | 0.00 | 0.00 | 62 | 993.5 |
| 20260504024543 | 49 | 258 | 0.0 | 7.0 | 0.00 | 0.00 | 0.00 | 62 | 993.6 |
| 20260504024042 | 49 | 229 | 0.0 | 10.0 | 0.00 | 0.00 | 0.00 | 61 | 993.6 |
| 20260504023541 | 49 | 217 | 0.0 | 10.0 | 0.00 | 0.00 | 0.00 | 60 | 993.6 |
| 20260504023041 | 49 | 261 | 0.0 | 7.0 | 0.00 | 0.00 | 0.00 | 60 | 993.7 |
| 20260504022545 | 49 | 238 | 0.0 | 5.0 | 0.00 | 0.00 | 0.00 | 59 | 993.7 |
| 20260504022041 | 49 | 244 | 0.0 | 3.0 | 0.00 | 0.00 | 0.00 | 58 | 993.7 |
| 20260504021540 | 49 | 232 | 0.0 | 10.0 | 0.00 | 0.00 | 0.00 | 58 | 993.7 |
| 20260504021043 | 49 | 212 | 0.0 | 10.0 | 0.00 | 0.00 | 0.00 | 57 | 993.7 |
| 20260504020542 | 49 | 252 | 0.0 | 8.0 | 0.00 | 0.00 | 0.00 | 57 | 993.7 |
| 20260504020041 | 50 | 268 | 0.0 | 12.0 | 0.00 | 0.00 | 0.00 | 57 | 993.7 |
| 20260504015540 | 50 | 242 | 0.0 | 12.0 | 0.00 | 0.00 | 0.00 | 56 | 993.7 |
| 20260504015040 | 50 | 238 | 1.0 | 14.0 | 0.00 | 0.00 | 0.00 | 55 | 993.6 |
| 20260504014539 | 50 | 217 | 3.0 | 14.0 | 0.00 | 0.00 | 0.00 | 55 | 993.7 |
| 20260504014040 | 50 | 237 | 3.0 | 12.0 | 0.00 | 0.00 | 0.00 | 55 | 993.8 |
| 20260504013539 | 50 | 263 | 0.0 | 11.0 | 0.00 | 0.00 | 0.00 | 55 | 993.7 |
| 20260504013039 | 49 | 249 | 4.0 | 12.0 | 0.00 | 0.00 | 0.00 | 55 | 993.8 |
| 20260504012539 | 49 | 229 | 0.0 | 7.0 | 0.00 | 0.00 | 0.00 | 55 | 993.7 |
| 20260504012039 | 49 | 246 | 0.0 | 7.0 | 0.00 | 0.00 | 0.00 | 55 | 993.6 |
| 20260504011541 | 49 | 240 | 0.0 | 10.0 | 0.00 | 0.00 | 0.00 | 54 | 993.6 |
| 20260504011038 | 49 | 258 | 0.0 | 9.0 | 0.00 | 0.00 | 0.00 | 54 | 993.5 |
| 20260504010538 | 50 | 242 | 1.0 | 10.0 | 0.00 | 0.00 | 0.00 | 54 | 993.5 |
| 20260504010043 | 50 | 194 | 1.0 | 10.0 | 0.00 | 0.00 | 0.00 | 54 | 993.5 |
| 20260504005538 | 49 | 252 | 0.0 | 7.0 | 0.00 | 0.00 | 0.00 | 55 | 993.4 |
| 20260504005038 | 49 | 234 | 0.0 | 8.0 | 0.00 | 0.00 | 0.00 | 54 | 993.3 |
| 20260504004538 | 50 | 236 | 0.0 | 2.0 | 0.00 | 0.00 | 0.00 | 54 | 993.3 |
| 20260504004038 | 50 | 236 | 0.0 | 4.0 | 0.00 | 0.00 | 0.00 | 54 | 993.3 |
| 20260504003537 | 50 | 248 | 0.0 | 9.0 | 0.00 | 0.00 | 0.00 | 55 | 993.4 |
| 20260504003043 | 50 | 221 | 0.0 | 9.0 | 0.00 | 0.00 | 0.00 | 55 | 993.2 |
| 20260504002536 | 50 | 221 | 0.0 | 6.0 | 0.00 | 0.00 | 0.00 | 55 | 993.2 |
| 20260504002036 | 50 | 231 | 0.0 | 6.0 | 0.00 | 0.00 | 0.00 | 55 | 993.2 |
| 20260504001545 | 50 | 219 | 0.0 | 1.0 | 0.00 | 0.00 | 0.00 | 56 | 993.2 |
| 20260504001036 | 51 | 220 | 0.0 | 8.0 | 0.00 | 0.00 | 0.00 | 55 | 993.2 |
| 20260504000535 | 51 | 256 | 1.0 | 9.0 | 0.00 | 0.00 | 0.00 | 55 | 993.2 |
| 20260504000035 | 51 | 189 | 1.0 | 13.0 | 0.00 | 0.00 | 0.00 | 55 | 993.2 |
| 20260503235535 | 51 | 194 | 0.0 | 8.0 | 0.00 | 0.00 | 0.00 | 55 | 993.2 |
| 20260503235036 | 51 | 188 | 0.0 | 7.0 | 0.00 | 0.00 | 0.00 | 55 | 993.2 |
| 20260503234535 | 51 | 214 | 0.0 | 8.0 | 0.00 | 0.00 | 0.00 | 55 | 993.2 |
| 20260503234038 | 51 | 227 | 1.0 | 12.0 | 0.00 | 0.00 | 0.00 | 54 | 993.1 |
| 20260503233535 | 52 | 248 | 1.0 | 12.0 | 0.00 | 0.00 | 0.00 | 54 | 993.2 |
| 20260503233035 | 51 | 218 | 1.0 | 7.0 | 0.00 | 0.00 | 0.00 | 54 | 993.2 |
| 20260503232534 | 52 | 228 | 0.0 | 8.0 | 0.00 | 0.00 | 0.00 | 54 | 993.2 |
| 20260503232033 | 52 | 230 | 0.0 | 11.0 | 0.00 | 0.00 | 0.00 | 53 | 993.2 |
| 20260503231545 | 52 | 246 | 1.0 | 16.0 | 0.00 | 0.00 | 0.00 | 52 | 993.2 |
| 20260503231033 | 52 | 241 | 4.0 | 16.0 | 0.00 | 0.00 | 0.00 | 51 | 993.2 |
| 20260503230533 | 52 | 192 | 2.0 | 12.0 | 0.00 | 0.00 | 0.00 | 50 | 993.2 |
| 20260503230033 | 53 | 211 | 2.0 | 13.0 | 0.00 | 0.00 | 0.00 | 50 | 993.2 |
| 20260503225533 | 53 | 232 | 1.0 | 14.0 | 0.00 | 0.00 | 0.00 | 49 | 993.1 |
| 20260503225032 | 53 | 259 | 5.0 | 18.0 | 0.00 | 0.00 | 0.00 | 48 | 993.1 |
| 20260503224531 | 54 | 240 | 4.0 | 18.0 | 0.00 | 0.00 | 0.00 | 47 | 993.2 |
| 20260503224031 | 54 | 232 | 7.0 | 17.0 | 0.00 | 0.00 | 0.00 | 46 | 993.1 |
| 20260503223530 | 55 | 246 | 1.0 | 16.0 | 0.00 | 0.00 | 0.00 | 46 | 993.1 |
| 20260503223030 | 55 | 195 | 0.0 | 8.0 | 0.00 | 0.00 | 0.00 | 46 | 993.1 |
| 20260503222529 | 55 | 229 | 0.0 | 9.0 | 0.00 | 0.00 | 0.00 | 46 | 993.2 |
| 20260503222029 | 55 | 205 | 1.0 | 9.0 | 0.00 | 0.00 | 0.00 | 45 | 993.2 |
| 20260503221529 | 56 | 237 | 0.0 | 11.0 | 0.00 | 0.00 | 0.00 | 45 | 993.2 |
| 20260503221031 | 56 | 176 | 1.0 | 12.0 | 0.00 | 0.00 | 0.00 | 41 | 993.2 |
| 20260503220533 | 57 | 223 | 2.0 | 11.0 | 0.00 | 0.00 | 0.00 | 33 | 993.2 |
| 20260503220036 | 57 | 230 | 2.0 | 11.0 | 0.00 | 0.00 | 0.00 | 33 | 993.2 |
| 20260503215530 | 57 | 251 | 3.0 | 13.0 | 0.00 | 0.00 | 0.00 | 32 | 993.1 |
| 20260503215029 | 57 | 232 | 3.0 | 17.0 | 0.00 | 0.00 | 0.00 | 34 | 993.1 |
| 20260503214530 | 57 | 244 | 7.0 | 16.0 | 0.00 | 0.00 | 0.00 | 32 | 993.1 |
| 20260503214029 | 57 | 244 | 4.0 | 15.0 | 0.00 | 0.00 | 0.00 | 34 | 993.2 |
| 20260503213528 | 56 | 273 | 0.0 | 12.0 | 0.00 | 0.00 | 0.00 | 34 | 993.2 |
| 20260503213046 | 56 | 257 | 0.0 | 12.0 | 0.00 | 0.00 | 0.00 | 34 | 993.3 |
| 20260503212528 | 57 | 240 | 0.0 | 10.0 | 0.00 | 0.00 | 0.00 | 34 | 993.3 |
| 20260503212026 | 57 | 285 | 1.0 | 11.0 | 0.00 | 0.00 | 0.00 | 31 | 993.3 |
| 20260503211526 | 58 | 227 | 2.0 | 15.0 | 0.00 | 0.00 | 0.00 | 35 | 993.4 |
| 20260503211028 | 58 | 262 | 2.0 | 15.0 | 0.00 | 0.00 | 0.00 | 35 | 993.4 |
| 20260503210527 | 58 | 267 | 2.0 | 13.0 | 0.00 | 0.00 | 0.00 | 33 | 993.4 |
| 20260503210025 | 57 | 257 | 1.0 | 16.0 | 0.00 | 0.00 | 0.00 | 35 | 993.3 |
| 20260503205524 | 56 | 236 | 2.0 | 16.0 | 0.00 | 0.00 | 0.00 | 35 | 993.4 |
| 20260503205027 | 57 | 246 | 2.0 | 15.0 | 0.00 | 0.00 | 0.00 | 34 | 993.4 |
| 20260503204531 | 57 | 248 | 2.0 | 15.0 | 0.00 | 0.00 | 0.00 | 34 | 993.5 |
| 20260503204023 | 57 | 218 | 6.0 | 14.0 | 0.00 | 0.00 | 0.00 | 35 | 993.5 |
| 20260503203523 | 58 | 238 | 1.0 | 14.0 | 0.00 | 0.00 | 0.00 | 36 | 993.5 |
| 20260503203025 | 56 | 252 | 1.0 | 11.0 | 0.00 | 0.00 | 0.00 | 37 | 993.4 |
| 20260503202522 | 56 | 267 | 1.0 | 17.0 | 0.00 | 0.00 | 0.00 | 33 | 993.6 |
| 20260503202022 | 57 | 250 | 5.0 | 17.0 | 0.00 | 0.00 | 0.00 | 35 | 993.7 |
| 20260503201524 | 56 | 236 | 6.0 | 14.0 | 0.00 | 0.00 | 0.00 | 35 | 993.7 |
| 20260503201019 | 55 | 265 | 0.0 | 16.0 | 0.00 | 0.00 | 0.00 | 36 | 993.9 |
| 20260503200519 | 57 | 267 | 4.0 | 16.0 | 0.00 | 0.00 | 0.00 | 34 | 994.1 |
| 20260503200019 | 58 | 254 | 1.0 | 14.0 | 0.00 | 0.00 | 0.00 | 37 | 994.0 |
| 20260503195517 | 57 | 235 | 1.0 | 7.0 | 0.00 | 0.00 | 0.00 | 40 | 994.0 |
| 20260503195016 | 55 | 252 | 0.0 | 17.0 | 0.00 | 0.00 | 0.00 | 37 | 994.1 |
| 20260503194521 | 55 | 250 | 7.0 | 17.0 | 0.00 | 0.00 | 0.00 | 36 | 994.3 |
| 20260503194015 | 55 | 251 | 0.0 | 12.0 | 0.00 | 0.00 | 0.00 | 38 | 994.3 |
| 20260503193515 | 55 | 271 | 3.0 | 12.0 | 0.00 | 0.00 | 0.00 | 38 | 994.3 |
| 20260503193014 | 55 | 241 | 2.0 | 12.0 | 0.00 | 0.00 | 0.00 | 37 | 994.6 |
| 20260503192512 | 55 | 236 | 0.0 | 19.0 | 0.00 | 0.00 | 0.00 | 38 | 994.5 |
| 20260503192014 | 55 | 232 | 3.0 | 19.0 | 0.00 | 0.00 | 0.00 | 37 | 994.7 |
| 20260503191512 | 56 | 229 | 0.0 | 10.0 | 0.00 | 0.00 | 0.00 | 37 | 994.7 |
| 20260503191016 | 55 | 232 | 2.0 | 10.0 | 0.00 | 0.00 | 0.00 | 38 | 994.8 |
| 20260503190510 | 54 | 230 | 0.0 | 8.0 | 0.00 | 0.00 | 0.00 | 41 | 994.8 |
| 20260503190012 | 54 | 311 | 0.0 | 15.0 | 0.00 | 0.00 | 0.00 | 35 | 994.9 |
| 20260503185511 | 55 | 269 | 1.0 | 18.0 | 0.00 | 0.00 | 0.00 | 39 | 995.0 |
| 20260503185008 | 55 | 264 | 4.0 | 14.0 | 0.00 | 0.00 | 0.00 | 40 | 995.0 |
| 20260503184509 | 54 | 265 | 1.0 | 9.0 | 0.00 | 0.00 | 0.00 | 39 | 995.1 |
| 20260503184010 | 54 | 205 | 1.0 | 10.0 | 0.00 | 0.00 | 0.00 | 39 | 995.1 |
| 20260503183507 | 54 | 258 | 0.0 | 1.0 | 0.00 | 0.00 | 0.00 | 42 | 995.1 |
| 20260503183006 | 54 | 339 | 0.0 | 11.0 | 0.00 | 0.00 | 0.00 | 39 | 995.2 |
| 20260503182509 | 54 | 346 | 1.0 | 11.0 | 0.00 | 0.00 | 0.00 | 41 | 995.3 |
| 20260503182005 | 54 | 323 | 0.0 | 7.0 | 0.00 | 0.00 | 0.00 | 37 | 995.3 |
| 20260503181506 | 54 | 267 | 0.0 | 14.0 | 0.00 | 0.00 | 0.00 | 41 | 995.4 |
| 20260503181004 | 53 | 257 | 1.0 | 14.0 | 0.00 | 0.00 | 0.00 | 39 | 995.5 |
| 20260503180503 | 53 | 338 | 0.0 | 8.0 | 0.00 | 0.00 | 0.00 | 38 | 995.6 |
| 20260503180005 | 54 | 252 | 0.0 | 13.0 | 0.00 | 0.00 | 0.00 | 41 | 995.6 |
| 20260503175501 | 54 | 235 | 1.0 | 14.0 | 0.00 | 0.00 | 0.00 | 39 | 995.7 |
| 20260503175001 | 55 | 224 | 1.0 | 13.0 | 0.00 | 0.00 | 0.00 | 42 | 995.7 |
| 20260503174618 | 54 | 258 | 2.0 | 13.0 | 0.00 | 0.00 | 0.00 | 44 | 995.8 |
| 20260503174059 | 54 | 255 | 1.0 | 9.0 | 0.00 | 0.00 | 0.00 | 41 | 995.9 |
| 20260503173558 | 54 | 15 | 1.0 | 11.0 | 0.00 | 0.00 | 0.00 | 40 | 995.8 |
| 20260503173130 | 52 | 273 | 0.0 | 10.0 | 0.00 | 0.00 | 0.00 | 42 | 996.0 |
| 20260503172556 | 53 | 246 | 0.0 | 10.0 | 0.00 | 0.00 | 0.00 | 41 | 995.9 |
| 20260503172058 | 53 | 265 | 1.0 | 12.0 | 0.00 | 0.00 | 0.00 | 44 | 996.0 |
| 20260503171554 | 52 | 254 | 0.0 | 16.0 | 0.00 | 0.00 | 0.00 | 43 | 996.1 |
| 20260503171053 | 52 | 219 | 1.0 | 16.0 | 0.00 | 0.00 | 0.00 | 45 | 996.1 |
| 20260503170553 | 52 | 234 | 4.0 | 14.0 | 0.00 | 0.00 | 0.00 | 44 | 996.1 |
| 20260503150535 | 49 | 259 | 0.0 | 13.0 | 0.00 | 0.01 | 0.00 | 51 | 997.8 |
| 20260503131008 | 46 | 269 | 0.0 | 0.0 | 0.00 | 0.01 | 0.00 | 60 | 998.7 |
| 20260503130510 | 46 | 308 | 0.0 | 0.0 | 0.00 | 0.01 | 0.00 | 62 | 998.7 |
| 20260503110540 | 38 | 271 | 0.0 | 0.0 | 0.00 | 0.01 | 0.00 | 79 | 998.6 |
| 20260503081527 | 39 | 272 | 0.0 | 0.0 | 0.00 | 0.01 | 0.00 | 73 | 998.7 |
| 20260503081019 | 39 | 271 | 0.0 | 0.0 | 0.00 | 0.01 | 0.00 | 73 | 998.7 |
| 20260503080519 | 39 | 272 | 0.0 | 0.0 | 0.00 | 0.01 | 0.00 | 73 | 998.7 |
| 20260503072519 | 39 | 269 | 0.0 | 0.0 | 0.00 | 0.01 | 0.00 | 74 | 998.7 |
| 20260503072017 | 39 | 269 | 0.0 | 0.0 | 0.00 | 0.01 | 0.00 | 74 | 998.7 |
| 20260503071526 | 39 | 269 | 0.0 | 0.0 | 0.00 | 0.01 | 0.00 | 74 | 998.7 |
| 20260503071017 | 39 | 269 | 0.0 | 0.0 | 0.00 | 0.01 | 0.00 | 74 | 998.7 |
| 20260503070517 | 39 | 269 | 0.0 | 0.0 | 0.00 | 0.01 | 0.00 | 74 | 998.7 |
| 20260503055009 | 39 | 260 | 0.0 | 0.0 | 0.00 | 0.01 | 0.00 | 81 | 999.0 |
| 20260503054519 | 39 | 260 | 0.0 | 0.0 | 0.00 | 0.01 | 0.00 | 81 | 999.0 |
| 20260503054009 | 39 | 260 | 0.0 | 0.0 | 0.00 | 0.01 | 0.00 | 81 | 999.0 |
| 20260503053508 | 39 | 260 | 0.0 | 0.0 | 0.00 | 0.01 | 0.00 | 81 | 999.0 |
| 20260503053008 | 39 | 260 | 0.0 | 0.0 | 0.00 | 0.01 | 0.00 | 82 | 999.1 |
| 20260503052507 | 39 | 260 | 0.0 | 0.0 | 0.00 | 0.01 | 0.00 | 82 | 999.1 |
| 20260503052007 | 39 | 260 | 0.0 | 0.0 | 0.00 | 0.01 | 0.00 | 83 | 999.2 |
| 20260503051505 | 39 | 260 | 0.0 | 0.0 | 0.00 | 0.01 | 0.00 | 84 | 999.2 |
| 20260503051005 | 40 | 260 | 0.0 | 0.0 | 0.00 | 0.01 | 0.00 | 84 | 999.2 |
| 20260503050505 | 40 | 259 | 0.0 | 0.0 | 0.00 | 0.01 | 0.00 | 84 | 999.2 |